AFR279 LUKK-EDDF

Flight info

Callsign AFR279
Flight time N/A
Altitude 38000
Route NUNTA DCT PASKA DCT REPTO DCT PITOK DCT ELMEK DCT RAPET T170 VAGAB/N0351F240 T170 GAPLA T178 KERAX KERAX5A
Aircraft A20N/M-SDE2E3FGHIRWXY/LB1

Departure

Time N/A
Airport Chişinău International Airport (LUKK)

Arrival

Time 2026-05-04 20:39
Airport Frankfurt Main Airport (EDDF)
Time Latitude Longitude Altitude Speed Heading
2026-05-04 18:32 47.32032 26.64936 37286 ft 427 kts 283°
2026-05-04 18:33 47.32595 26.60660 37493 ft 428 kts 283°
2026-05-04 18:33 47.33158 26.56364 37676 ft 429 kts 283°
2026-05-04 18:33 47.33725 26.52032 37841 ft 430 kts 283°
2026-05-04 18:33 47.34282 26.47755 38000 ft 431 kts 283°
2026-05-04 18:34 47.34849 26.43394 38049 ft 432 kts 283°
2026-05-04 18:34 47.35970 26.34730 38067 ft 432 kts 283°
2026-05-04 18:35 47.37086 26.26025 38077 ft 432 kts 283°
2026-05-04 18:35 47.38185 26.17394 38086 ft 431 kts 283°
2026-05-04 18:36 47.39281 26.08748 38096 ft 431 kts 283°
2026-05-04 18:36 47.40375 26.00075 38100 ft 430 kts 283°
2026-05-04 18:37 47.41460 25.91415 38105 ft 430 kts 283°
2026-05-04 18:37 47.42536 25.82774 38104 ft 430 kts 283°
2026-05-04 18:38 47.43606 25.74134 38109 ft 431 kts 283°
2026-05-04 18:38 47.44676 25.65424 38119 ft 431 kts 283°
2026-05-04 18:39 47.45736 25.56744 38125 ft 430 kts 283°
2026-05-04 18:39 47.46786 25.48089 38129 ft 430 kts 283°
2026-05-04 18:40 47.47830 25.39429 38131 ft 430 kts 283°
2026-05-04 18:40 47.48866 25.30769 38128 ft 430 kts 282°
2026-05-04 18:41 47.49894 25.22095 38125 ft 431 kts 282°
2026-05-04 18:41 47.50924 25.13357 38126 ft 431 kts 282°
2026-05-04 18:42 47.51943 25.04661 38127 ft 430 kts 282°
2026-05-04 18:42 47.52947 24.96034 38130 ft 430 kts 282°
2026-05-04 18:43 47.53956 24.87325 38134 ft 430 kts 282°
2026-05-04 18:43 47.54950 24.78668 38133 ft 429 kts 282°
2026-05-04 18:44 47.55945 24.69949 38130 ft 429 kts 282°
2026-05-04 18:44 47.57338 24.61420 38129 ft 427 kts 289°
2026-05-04 18:45 47.59044 24.53059 38128 ft 427 kts 289°
2026-05-04 18:45 47.60729 24.44668 38125 ft 427 kts 289°
2026-05-04 18:46 47.62388 24.36260 38130 ft 426 kts 289°
2026-05-04 18:46 47.64030 24.27852 38131 ft 427 kts 288°
2026-05-04 18:47 47.65673 24.19379 38128 ft 427 kts 288°
2026-05-04 18:47 47.67303 24.10950 38125 ft 427 kts 288°
2026-05-04 18:48 47.68922 24.02538 38119 ft 426 kts 288°
2026-05-04 18:48 47.70540 23.94096 38121 ft 425 kts 288°
2026-05-04 18:49 47.72139 23.85718 38128 ft 426 kts 288°
2026-05-04 18:49 47.73743 23.77282 38127 ft 426 kts 288°
2026-05-04 18:50 47.75347 23.68808 38126 ft 426 kts 288°
2026-05-04 18:50 47.76934 23.60377 38115 ft 426 kts 288°
2026-05-04 18:51 47.78523 23.51903 38103 ft 426 kts 288°
2026-05-04 18:51 47.80106 23.43421 38089 ft 426 kts 288°
2026-05-04 18:52 47.81673 23.34990 38087 ft 426 kts 287°
2026-05-04 18:52 47.83235 23.26515 38079 ft 426 kts 287°
2026-05-04 18:53 47.84790 23.18048 38073 ft 426 kts 287°
2026-05-04 18:53 47.86334 23.09616 38064 ft 426 kts 287°
2026-05-04 18:54 47.87886 23.01105 38062 ft 426 kts 287°
2026-05-04 18:54 47.89433 22.92582 38059 ft 426 kts 287°
2026-05-04 18:55 47.90954 22.84163 38061 ft 424 kts 287°
2026-05-04 18:55 47.93236 22.71461 38063 ft 424 kts 287°
2026-05-04 18:56 47.94749 22.62997 38056 ft 424 kts 287°
2026-05-04 18:56 47.96256 22.54519 38057 ft 424 kts 287°
2026-05-04 18:57 47.97755 22.46044 38062 ft 424 kts 287°
2026-05-04 18:57 47.99256 22.37518 38061 ft 423 kts 287°
2026-05-04 18:58 48.00729 22.29093 38065 ft 423 kts 287°
2026-05-04 18:58 48.02201 22.20634 38061 ft 423 kts 287°
2026-05-04 18:59 48.03670 22.12166 38059 ft 422 kts 287°
2026-05-04 18:59 48.05132 22.03698 38070 ft 422 kts 287°
2026-05-04 19:00 48.06587 21.95237 38060 ft 421 kts 287°
2026-05-04 19:00 48.08032 21.86786 38057 ft 421 kts 287°
2026-05-04 19:01 48.09462 21.78386 38058 ft 420 kts 287°
2026-05-04 19:01 48.10906 21.69946 38051 ft 420 kts 287°
2026-05-04 19:02 48.12362 21.61464 38051 ft 420 kts 287°
2026-05-04 19:02 48.13787 21.53026 38048 ft 420 kts 287°
2026-05-04 19:03 48.15194 21.44625 38050 ft 420 kts 287°
2026-05-04 19:03 48.16602 21.36150 38048 ft 419 kts 287°
2026-05-04 19:04 48.17993 21.27709 38049 ft 418 kts 285°
2026-05-04 19:04 48.19381 21.19250 38043 ft 418 kts 285°
2026-05-04 19:05 48.20755 21.10846 38043 ft 418 kts 285°
2026-05-04 19:05 48.22132 21.02388 38040 ft 418 kts 285°
2026-05-04 19:06 48.23493 20.93985 38035 ft 418 kts 285°
2026-05-04 19:06 48.24852 20.85545 38037 ft 418 kts 285°
2026-05-04 19:07 48.26206 20.77103 38036 ft 418 kts 285°
2026-05-04 19:07 48.27560 20.68610 38037 ft 418 kts 285°
2026-05-04 19:08 48.28892 20.60203 38043 ft 418 kts 285°
2026-05-04 19:08 48.30228 20.51714 38054 ft 419 kts 285°
2026-05-04 19:09 48.31559 20.43248 38058 ft 417 kts 286°
2026-05-04 19:09 48.33233 20.34952 38058 ft 416 kts 291°
2026-05-04 19:10 48.35420 20.26925 38057 ft 415 kts 294°
2026-05-04 19:10 48.37671 20.19003 38057 ft 415 kts 294°
2026-05-04 19:11 48.39928 20.11021 38058 ft 415 kts 294°
2026-05-04 19:11 48.42162 20.03097 38067 ft 415 kts 294°
2026-05-04 19:12 48.45516 19.91133 38077 ft 415 kts 294°
2026-05-04 19:13 48.47745 19.83149 38080 ft 415 kts 294°
2026-05-04 19:13 48.49974 19.75137 38077 ft 415 kts 294°
2026-05-04 19:14 48.52192 19.67138 38079 ft 415 kts 294°
2026-05-04 19:14 48.54400 19.59149 38078 ft 415 kts 294°
2026-05-04 19:15 48.56602 19.51154 38072 ft 415 kts 294°
2026-05-04 19:15 48.58813 19.43101 38068 ft 414 kts 294°
2026-05-04 19:16 48.61004 19.35090 38067 ft 415 kts 294°
2026-05-04 19:16 48.63183 19.27073 38065 ft 415 kts 293°
2026-05-04 19:17 48.65361 19.19041 38068 ft 415 kts 293°
2026-05-04 19:17 48.67541 19.10979 38081 ft 415 kts 293°
2026-05-04 19:18 48.69721 19.02896 38095 ft 415 kts 293°
2026-05-04 19:18 48.71891 18.94823 38105 ft 415 kts 293°
2026-05-04 19:19 48.74039 18.86811 38092 ft 414 kts 293°
2026-05-04 19:19 48.76186 18.78769 38073 ft 413 kts 293°
2026-05-04 19:20 48.78339 18.70684 38063 ft 414 kts 293°
2026-05-04 19:20 48.80482 18.62599 38055 ft 414 kts 293°
2026-05-04 19:21 48.82616 18.54525 38052 ft 414 kts 293°
2026-05-04 19:21 48.84739 18.46463 38047 ft 413 kts 293°
2026-05-04 19:22 48.86861 18.38380 38040 ft 412 kts 293°
2026-05-04 19:22 48.88966 18.30321 38040 ft 412 kts 292°
2026-05-04 19:23 48.91060 18.22261 38033 ft 411 kts 292°
2026-05-04 19:23 48.93151 18.14194 38039 ft 411 kts 292°
2026-05-04 19:24 48.95226 18.06169 38038 ft 411 kts 292°
2026-05-04 19:24 48.97302 17.98113 38046 ft 411 kts 292°
2026-05-04 19:25 48.99383 17.90017 38037 ft 411 kts 292°
2026-05-04 19:25 49.01446 17.81963 38025 ft 411 kts 292°
2026-05-04 19:26 49.03509 17.73880 38016 ft 411 kts 292°
2026-05-04 19:26 49.05575 17.65756 38009 ft 410 kts 292°
2026-05-04 19:27 49.07606 17.57735 38005 ft 410 kts 292°
2026-05-04 19:27 49.09653 17.49628 37993 ft 410 kts 291°
2026-05-04 19:28 49.11703 17.41547 37997 ft 410 kts 292°
2026-05-04 19:28 49.13765 17.33408 37990 ft 411 kts 291°
2026-05-04 19:29 49.15793 17.25293 37988 ft 410 kts 291°
2026-05-04 19:29 49.17810 17.17185 37979 ft 411 kts 290°
2026-05-04 19:30 49.19825 17.09061 37974 ft 410 kts 290°
2026-05-04 19:30 49.21836 17.00914 37970 ft 411 kts 290°
2026-05-04 19:31 49.23833 16.92799 37968 ft 410 kts 290°
2026-05-04 19:31 49.25827 16.84661 37969 ft 410 kts 290°
2026-05-04 19:32 49.27820 16.76505 37970 ft 410 kts 290°
2026-05-04 19:32 49.29803 16.68355 37974 ft 409 kts 290°
2026-05-04 19:33 49.31772 16.60233 37973 ft 409 kts 290°
2026-05-04 19:33 49.33738 16.52100 37967 ft 409 kts 290°
2026-05-04 19:34 49.35707 16.43916 37967 ft 408 kts 290°
2026-05-04 19:34 49.37656 16.35787 37966 ft 408 kts 290°
2026-05-04 19:35 49.39595 16.27644 37967 ft 408 kts 289°
2026-05-04 19:35 49.41531 16.19492 37962 ft 407 kts 289°
2026-05-04 19:36 49.43461 16.11345 37956 ft 407 kts 289°
2026-05-04 19:36 49.45380 16.03217 37956 ft 407 kts 289°
2026-05-04 19:37 49.47306 15.95034 37957 ft 408 kts 289°
2026-05-04 19:37 49.49219 15.86872 37961 ft 407 kts 289°
2026-05-04 19:38 49.51115 15.78757 37962 ft 407 kts 289°
2026-05-04 19:38 49.53016 15.70585 37958 ft 407 kts 289°
2026-05-04 19:39 49.54911 15.62404 37958 ft 408 kts 289°
2026-05-04 19:39 49.56810 15.54180 37960 ft 408 kts 289°
2026-05-04 19:40 49.58705 15.45945 37961 ft 408 kts 288°
2026-05-04 19:40 49.60578 15.37770 37958 ft 408 kts 289°
2026-05-04 19:41 49.62458 15.29516 37959 ft 409 kts 288°
2026-05-04 19:41 49.64328 15.21269 37954 ft 409 kts 288°
2026-05-04 19:42 49.66193 15.13027 37957 ft 409 kts 288°
2026-05-04 19:42 49.68058 15.04755 37957 ft 410 kts 288°
2026-05-04 19:43 49.69920 14.96467 37958 ft 410 kts 288°
2026-05-04 19:43 49.71779 14.88163 37948 ft 410 kts 287°
2026-05-04 19:44 49.73619 14.79912 37942 ft 409 kts 287°
2026-05-04 19:44 49.75462 14.71611 37942 ft 409 kts 287°
2026-05-04 19:45 49.77303 14.63290 37942 ft 409 kts 287°
2026-05-04 19:45 49.79120 14.55038 37937 ft 409 kts 287°
2026-05-04 19:46 49.80936 14.46759 37936 ft 409 kts 287°
2026-05-04 19:46 49.82756 14.38426 37937 ft 409 kts 287°
2026-05-04 19:47 49.84563 14.30114 37942 ft 408 kts 286°
2026-05-04 19:47 49.86354 14.21829 37939 ft 408 kts 286°
2026-05-04 19:48 49.88149 14.13499 37945 ft 408 kts 286°
2026-05-04 19:48 49.89931 14.05211 37945 ft 407 kts 286°
2026-05-04 19:49 49.91507 13.96843 37940 ft 406 kts 283°
2026-05-04 19:49 49.93000 13.88376 37949 ft 406 kts 283°
2026-05-04 19:50 49.94473 13.79980 37951 ft 407 kts 283°
2026-05-04 19:50 49.95949 13.71542 37947 ft 407 kts 283°
2026-05-04 19:51 49.97422 13.63087 37948 ft 407 kts 283°
2026-05-04 19:51 49.98890 13.54627 37948 ft 407 kts 283°
2026-05-04 19:52 50.00357 13.46122 37947 ft 408 kts 283°
2026-05-04 19:52 50.01815 13.37629 37952 ft 408 kts 283°
2026-05-04 19:53 50.03267 13.29119 37953 ft 408 kts 282°
2026-05-04 19:53 50.04710 13.20614 37947 ft 408 kts 282°
2026-05-04 19:54 50.06144 13.12130 37952 ft 409 kts 282°
2026-05-04 19:54 50.07581 13.03594 37967 ft 408 kts 282°
2026-05-04 19:55 50.09019 12.95017 37970 ft 409 kts 282°
2026-05-04 19:55 50.10445 12.86487 37964 ft 409 kts 282°
2026-05-04 19:56 50.11888 12.77944 37966 ft 409 kts 282°
2026-05-04 19:56 50.13312 12.69384 37857 ft 410 kts 282°
2026-05-04 19:56 50.14016 12.65114 37523 ft 410 kts 282°
2026-05-04 19:57 50.14716 12.60842 37210 ft 410 kts 282°
2026-05-04 19:57 50.15422 12.56515 36903 ft 411 kts 282°
2026-05-04 19:57 50.16120 12.52225 36645 ft 412 kts 282°
2026-05-04 19:57 50.16813 12.47951 36411 ft 412 kts 282°
2026-05-04 19:58 50.17514 12.43623 36176 ft 413 kts 282°
2026-05-04 19:58 50.18222 12.39243 35937 ft 414 kts 282°
2026-05-04 19:58 50.18949 12.34958 35709 ft 415 kts 283°
2026-05-04 19:58 50.19842 12.30646 35471 ft 416 kts 286°
2026-05-04 19:59 50.20809 12.26397 35234 ft 418 kts 287°
2026-05-04 19:59 50.21779 12.22191 35005 ft 418 kts 287°
2026-05-04 19:59 50.22758 12.17939 34766 ft 418 kts 287°
2026-05-04 19:59 50.23737 12.13669 34487 ft 419 kts 287°
2026-05-04 20:00 50.24720 12.09368 34213 ft 420 kts 287°
2026-05-04 20:00 50.25689 12.05119 33967 ft 419 kts 287°
2026-05-04 20:00 50.26666 12.00836 33690 ft 413 kts 287°
2026-05-04 20:00 50.27627 11.96673 33420 ft 410 kts 287°
2026-05-04 20:01 50.28590 11.92502 33148 ft 410 kts 287°
2026-05-04 20:01 50.29556 11.88298 32874 ft 410 kts 287°
2026-05-04 20:01 50.30513 11.84123 32601 ft 409 kts 287°
2026-05-04 20:01 50.31462 11.79967 32330 ft 406 kts 287°
2026-05-04 20:02 50.32396 11.75868 32061 ft 404 kts 287°
2026-05-04 20:02 50.33336 11.71734 31788 ft 402 kts 287°
2026-05-04 20:02 50.34255 11.67684 31520 ft 400 kts 287°
2026-05-04 20:02 50.35176 11.63611 31248 ft 397 kts 287°
2026-05-04 20:03 50.36101 11.59511 30973 ft 396 kts 287°
2026-05-04 20:03 50.37001 11.55513 30706 ft 394 kts 287°
2026-05-04 20:03 50.37918 11.51440 30430 ft 392 kts 287°
2026-05-04 20:03 50.38814 11.47443 30152 ft 390 kts 287°
2026-05-04 20:04 50.39700 11.43481 29878 ft 388 kts 287°
2026-05-04 20:04 50.40593 11.39485 29600 ft 387 kts 287°
2026-05-04 20:04 50.41468 11.35568 29327 ft 385 kts 287°
2026-05-04 20:04 50.42351 11.31603 29050 ft 383 kts 285°
2026-05-04 20:05 50.43224 11.27676 28775 ft 382 kts 285°
2026-05-04 20:05 50.44093 11.23763 28500 ft 381 kts 285°
2026-05-04 20:05 50.44949 11.19895 28228 ft 379 kts 285°
2026-05-04 20:05 50.45810 11.15997 27952 ft 378 kts 285°
2026-05-04 20:06 50.46660 11.12140 27681 ft 376 kts 285°
2026-05-04 20:06 50.47514 11.08256 27408 ft 375 kts 285°
2026-05-04 20:06 50.48357 11.04416 27135 ft 374 kts 285°
2026-05-04 20:06 50.49205 11.00546 26861 ft 373 kts 285°
2026-05-04 20:07 50.50038 10.96739 26593 ft 372 kts 285°
2026-05-04 20:07 50.50873 10.92911 26324 ft 370 kts 285°
2026-05-04 20:07 50.51699 10.89120 26053 ft 369 kts 285°
2026-05-04 20:07 50.52525 10.85321 25785 ft 368 kts 285°
2026-05-04 20:08 50.53350 10.81525 25514 ft 367 kts 286°
2026-05-04 20:08 50.54195 10.77768 25247 ft 366 kts 287°
2026-05-04 20:08 50.55049 10.74029 24988 ft 364 kts 287°
2026-05-04 20:08 50.55898 10.70287 24720 ft 363 kts 285°
2026-05-04 20:09 50.56297 10.66468 24427 ft 353 kts 264°
2026-05-04 20:09 50.56016 10.62661 24177 ft 352 kts 260°
2026-05-04 20:09 50.55651 10.58845 23982 ft 351 kts 260°
2026-05-04 20:09 50.55305 10.55075 23964 ft 352 kts 260°
2026-05-04 20:10 50.54975 10.51251 23959 ft 353 kts 261°
2026-05-04 20:10 50.54662 10.47431 23958 ft 353 kts 261°
2026-05-04 20:10 50.54359 10.43619 23961 ft 353 kts 261°
2026-05-04 20:10 50.54062 10.39826 23856 ft 354 kts 261°
2026-05-04 20:11 50.53765 10.36008 23368 ft 354 kts 261°
2026-05-04 20:11 50.53463 10.32102 22466 ft 364 kts 261°
2026-05-04 20:11 50.53157 10.28151 21496 ft 374 kts 261°
2026-05-04 20:11 50.52839 10.24046 20474 ft 384 kts 261°
2026-05-04 20:12 50.52517 10.19898 19423 ft 393 kts 261°
2026-05-04 20:12 50.52181 10.15593 18330 ft 402 kts 261°
2026-05-04 20:12 50.51841 10.11244 17205 ft 411 kts 261°
2026-05-04 20:12 50.51490 10.06778 16142 ft 416 kts 262°
2026-05-04 20:13 50.51137 10.02290 15350 ft 413 kts 262°
2026-05-04 20:13 50.50786 9.97860 14633 ft 408 kts 262°
2026-05-04 20:13 50.50441 9.93526 13926 ft 404 kts 262°
2026-05-04 20:13 50.50092 9.89164 13223 ft 400 kts 262°
2026-05-04 20:14 50.49746 9.84868 12540 ft 395 kts 261°
2026-05-04 20:14 50.49404 9.80634 11856 ft 391 kts 261°
2026-05-04 20:14 50.49062 9.76446 11277 ft 383 kts 261°
2026-05-04 20:14 50.48731 9.72396 10989 ft 369 kts 261°
2026-05-04 20:15 50.48412 9.68508 10952 ft 349 kts 261°
2026-05-04 20:15 50.48111 9.64842 10947 ft 329 kts 261°
2026-05-04 20:15 50.47814 9.61386 10943 ft 311 kts 259°
2026-05-04 20:15 50.47431 9.58192 10944 ft 296 kts 256°
2026-05-04 20:16 50.46936 9.55045 10947 ft 295 kts 253°
2026-05-04 20:16 50.46367 9.51994 10950 ft 294 kts 252°
2026-05-04 20:16 50.45778 9.48899 10955 ft 294 kts 252°
2026-05-04 20:16 50.45192 9.45817 10951 ft 294 kts 252°
2026-05-04 20:17 50.44615 9.42774 10951 ft 294 kts 252°
2026-05-04 20:17 50.44027 9.39674 10958 ft 294 kts 252°
2026-05-04 20:17 50.43444 9.36608 10957 ft 295 kts 252°
2026-05-04 20:17 50.42865 9.33557 10960 ft 295 kts 251°
2026-05-04 20:18 50.42283 9.30482 10955 ft 295 kts 251°
2026-05-04 20:18 50.41697 9.27399 10954 ft 295 kts 251°
2026-05-04 20:18 50.41081 9.24329 10962 ft 295 kts 249°
2026-05-04 20:18 50.40392 9.21332 10965 ft 294 kts 248°
2026-05-04 20:19 50.39687 9.18301 10964 ft 295 kts 248°
2026-05-04 20:19 50.38989 9.15300 10960 ft 295 kts 248°
2026-05-04 20:19 50.38297 9.12308 10962 ft 294 kts 248°
2026-05-04 20:19 50.37597 9.09291 10967 ft 294 kts 248°
2026-05-04 20:20 50.36904 9.06304 10968 ft 293 kts 248°
2026-05-04 20:20 50.36200 9.03279 10969 ft 293 kts 248°
2026-05-04 20:20 50.35499 9.00279 10970 ft 294 kts 248°
2026-05-04 20:20 50.34799 8.97280 10970 ft 294 kts 248°
2026-05-04 20:21 50.34101 8.94295 10969 ft 294 kts 248°
2026-05-04 20:21 50.33401 8.91305 10968 ft 294 kts 248°
2026-05-04 20:21 50.31056 8.86224 10965 ft 292 kts 213°
2026-05-04 20:22 50.29223 8.84907 10968 ft 292 kts 195°
2026-05-04 20:22 50.27215 8.84601 10967 ft 294 kts 176°
2026-05-04 20:22 50.25230 8.85357 10968 ft 297 kts 158°
2026-05-04 20:22 50.23499 8.87126 10966 ft 301 kts 138°
2026-05-04 20:23 50.22231 8.89756 10966 ft 306 kts 118°
2026-05-04 20:23 50.21606 8.92959 10963 ft 311 kts 98°
2026-05-04 20:23 50.21730 8.96311 10962 ft 315 kts 77°
2026-05-04 20:23 50.22607 8.99420 10960 ft 317 kts 56°
2026-05-04 20:24 50.24036 9.02024 10967 ft 319 kts 48°
2026-05-04 20:24 50.25365 9.04808 10958 ft 318 kts 63°
2026-05-04 20:24 50.26268 9.07924 10966 ft 318 kts 69°
2026-05-04 20:24 50.27086 9.11145 10965 ft 318 kts 70°
2026-05-04 20:25 50.27849 9.14343 10964 ft 318 kts 71°
2026-05-04 20:25 50.28607 9.17602 10963 ft 318 kts 71°
2026-05-04 20:25 50.29354 9.20841 10964 ft 317 kts 71°
2026-05-04 20:25 50.30099 9.24071 10967 ft 318 kts 71°
2026-05-04 20:26 50.30849 9.27327 10968 ft 317 kts 71°
2026-05-04 20:26 50.31567 9.30583 10959 ft 316 kts 77°
2026-05-04 20:26 50.31641 9.33905 10950 ft 310 kts 106°
2026-05-04 20:26 50.30688 9.36851 10958 ft 303 kts 134°
2026-05-04 20:27 50.29029 9.38791 10951 ft 290 kts 159°
2026-05-04 20:27 50.27107 9.39254 10951 ft 280 kts 189°
2026-05-04 20:27 50.25314 9.38210 10955 ft 278 kts 215°
2026-05-04 20:27 50.24005 9.36017 10950 ft 279 kts 240°
2026-05-04 20:28 50.23299 9.33199 10960 ft 282 kts 249°
2026-05-04 20:28 50.22669 9.30312 10961 ft 283 kts 249°
2026-05-04 20:28 50.22020 9.27416 10957 ft 282 kts 249°
2026-05-04 20:28 50.21363 9.24542 10960 ft 283 kts 248°
2026-05-04 20:29 50.20697 9.21650 10957 ft 283 kts 248°
2026-05-04 20:29 50.20011 9.18745 10955 ft 284 kts 246°
2026-05-04 20:29 50.19245 9.15958 10953 ft 283 kts 244°
2026-05-04 20:29 50.18450 9.13204 10948 ft 271 kts 244°
2026-05-04 20:30 50.17691 9.10586 10751 ft 259 kts 244°
2026-05-04 20:30 50.16971 9.08107 10481 ft 240 kts 244°
2026-05-04 20:30 50.16315 9.05839 10066 ft 222 kts 244°
2026-05-04 20:30 50.15705 9.03732 9716 ft 206 kts 244°
2026-05-04 20:31 50.15144 9.01784 9485 ft 187 kts 244°
2026-05-04 20:31 50.14643 9.00038 9266 ft 168 kts 244°
2026-05-04 20:31 50.14193 8.98455 9013 ft 154 kts 244°
2026-05-04 20:31 50.13776 8.96973 8649 ft 149 kts 244°
2026-05-04 20:32 50.13361 8.95489 8233 ft 148 kts 244°
2026-05-04 20:32 50.12959 8.94053 7825 ft 147 kts 244°
2026-05-04 20:32 50.12553 8.92603 7418 ft 146 kts 244°
2026-05-04 20:32 50.12146 8.91155 7008 ft 145 kts 244°
2026-05-04 20:33 50.11745 8.89732 6609 ft 144 kts 244°
2026-05-04 20:33 50.11348 8.88332 6211 ft 143 kts 244°
2026-05-04 20:33 50.10944 8.86927 5815 ft 142 kts 244°
2026-05-04 20:33 50.10537 8.85540 5410 ft 142 kts 245°
2026-05-04 20:34 50.10143 8.84141 4994 ft 143 kts 248°
2026-05-04 20:34 50.09787 8.82712 4623 ft 140 kts 250°
2026-05-04 20:34 50.09465 8.81300 4260 ft 138 kts 251°
2026-05-04 20:34 50.09136 8.79920 3914 ft 135 kts 250°
2026-05-04 20:35 50.08799 8.78574 3567 ft 133 kts 251°
2026-05-04 20:35 50.08463 8.77265 3261 ft 132 kts 251°
2026-05-04 20:35 50.08111 8.75909 3116 ft 136 kts 250°
2026-05-04 20:35 50.07753 8.74528 3012 ft 138 kts 251°
2026-05-04 20:36 50.07410 8.73124 2860 ft 138 kts 254°
2026-05-04 20:36 50.07093 8.71728 2712 ft 138 kts 252°
2026-05-04 20:36 50.06757 8.70324 2501 ft 137 kts 252°
2026-05-04 20:36 50.06429 8.68947 2272 ft 136 kts 252°
2026-05-04 20:37 50.06097 8.67550 2009 ft 137 kts 253°
2026-05-04 20:37 50.05774 8.66175 1738 ft 137 kts 253°
2026-05-04 20:37 50.05460 8.64798 1458 ft 135 kts 253°
2026-05-04 20:37 50.05171 8.63428 1171 ft 131 kts 252°
2026-05-04 20:38 50.04847 8.62113 969 ft 133 kts 250°
2026-05-04 20:38 50.04522 8.60771 744 ft 133 kts 251°
2026-05-04 20:38 50.04194 8.59419 533 ft 132 kts 251°
2026-05-04 20:38 50.03875 8.58094 368 ft 131 kts 251°
2026-05-04 20:39 50.03581 8.56891 343 ft 97 kts 250°
2026-05-04 20:39 50.03405 8.56148 339 ft 49 kts 248°
2026-05-04 20:39 50.03296 8.55717 336 ft 33 kts 240°
2026-05-04 20:39 50.03144 8.55461 335 ft 24 kts 220°
2026-05-04 20:40 50.03135 8.55448 335 ft 0 kts 220°
2026-05-04 20:42 50.03131 8.55444 336 ft 2 kts 207°
2026-05-04 20:43 50.03101 8.55432 336 ft 9 kts 180°
2026-05-04 20:43 50.03091 8.55434 336 ft 0 kts 167°
2026-05-04 20:43 50.03090 8.55434 336 ft 0 kts 167°
2026-05-04 20:43 50.03075 8.55447 336 ft 0 kts 142°
2026-05-04 20:45 50.03059 8.55506 337 ft 11 kts 82°
2026-05-04 20:46 50.03090 8.55628 336 ft 13 kts 67°
2026-05-04 20:46 50.03124 8.55764 338 ft 13 kts 70°
2026-05-04 20:46 50.03155 8.55894 338 ft 13 kts 70°
2026-05-04 20:46 50.03189 8.56041 338 ft 14 kts 70°
2026-05-04 20:47 50.03226 8.56196 339 ft 15 kts 69°
2026-05-04 20:47 50.03264 8.56348 339 ft 15 kts 70°
2026-05-04 20:47 50.03301 8.56506 341 ft 15 kts 70°
2026-05-04 20:47 50.03338 8.56666 341 ft 16 kts 70°
2026-05-04 20:48 50.03376 8.56829 341 ft 16 kts 70°
2026-05-04 20:48 50.03418 8.57004 341 ft 17 kts 69°
2026-05-04 20:48 50.03463 8.57184 341 ft 18 kts 69°
2026-05-04 20:48 50.03507 8.57366 342 ft 17 kts 70°
2026-05-04 20:49 50.03546 8.57535 347 ft 15 kts 71°
2026-05-04 20:49 50.03577 8.57671 353 ft 11 kts 70°
2026-05-04 20:49 50.03604 8.57781 355 ft 11 kts 70°
2026-05-04 20:49 50.03632 8.57908 360 ft 11 kts 70°
2026-05-04 20:50 50.03655 8.58007 364 ft 8 kts 83°
2026-05-04 20:50 50.03623 8.58088 363 ft 11 kts 165°
2026-05-04 20:50 50.03537 8.58091 362 ft 13 kts 167°
2026-05-04 20:50 50.03482 8.58112 361 ft 1 kts 225°
2026-05-04 20:51 50.03480 8.58102 360 ft 2 kts 249°
2026-05-04 20:51 50.03466 8.58037 360 ft 0 kts 246°